Theta_e
310 310 310 310 310 310 309 309 309 309 309 309 309 309 309 309 309 312 319 316 315 313 316 315 316 317 318 318 318 315 313 315 318 316 315 315 315 314 314 315 314 314 314 314 318
311 311 311 311 312 311 311 311 311 311 311 311 311 310 310 309 310 316 316 315 313 312 316 316 316 317 314 319 317 314 314 317 316 315 316 315 314 313 313 310 310 311 311 314 317
314 313 313 313 314 314 314 314 314 314 313 313 312 312 311 309 317 316 314 312 310 313 317 317 317 316 317 317 318 318 315 316 317 317 316 316 314 313 312 313 311 312 312 311 314
315 315 315 315 316 317 316 316 318 318 315 314 313 312 311 310 312 314 314 312 311 314 316 316 315 316 316 317 317 318 316 316 316 315 315 316 316 314 314 314 311 310 310 311 310
316 315 316 316 318 318 319 320 321 320 318 316 315 311 311 316 314 315 312 311 312 315 315 315 315 315 316 315 313 316 316 316 315 313 312 313 313 314 313 312 310 310 310 309 309
316 316 317 318 319 321 322 322 322 321 320 317 315 311 314 313 313 315 314 311 313 314 315 314 315 314 314 315 314 314 313 313 312 312 312 313 312 314 312 310 309 309 308 307 307
317 317 318 320 322 322 323 323 322 321 317 313 311 310 316 312 315 317 315 314 315 314 314 315 315 315 314 313 314 313 313 311 312 312 312 311 313 313 311 309 309 309 308 308 306
317 318 319 321 322 323 323 323 322 319 312 309 309 315 310 311 313 314 315 314 315 315 314 314 314 314 314 313 313 314 312 313 313 313 313 311 312 312 310 309 310 310 307 305 304
318 319 321 322 323 323 323 322 320 313 311 311 316 317 314 308 310 313 312 313 313 312 312 313 314 313 313 312 312 312 312 313 314 313 312 312 311 311 310 311 310 307 306 305 303
319 320 322 323 323 323 322 320 317 312 317 314 314 312 310 311 310 310 311 313 312 311 311 312 310 311 309 311 312 313 314 314 314 314 313 313 310 309 310 310 311 305 304 304 303
321 323 324 324 323 323 321 318 318 318 315 317 316 311 311 310 310 310 310 311 312 312 312 311 310 311 310 310 311 312 314 314 312 312 313 313 312 311 311 310 310 305 305 304 303
322 323 324 324 323 323 320 316 314 314 319 317 318 318 313 311 312 310 310 310 311 312 311 311 312 311 311 312 313 313 314 313 312 313 314 312 312 311 311 312 309 306 305 304 302
322 322 323 324 324 322 318 315 314 311 315 317 315 316 311 313 314 311 309 309 311 312 311 312 313 313 314 314 314 314 314 313 313 312 311 313 312 313 312 307 307 305 304 303 302
322 322 323 324 323 322 318 317 314 310 317 319 316 309 309 310 312 307 309 311 312 312 311 312 312 313 313 315 313 315 312 313 313 312 313 313 314 313 312 308 307 304 302 301 300
323 324 324 324 323 322 318 318 313 311 324 315 311 309 309 311 309 309 308 309 313 313 312 316 312 312 313 313 311 313 310 311 312 311 313 313 314 313 310 310 307 304 302 300 299
324 325 323 323 323 321 319 317 314 322 328 315 309 311 310 309 309 308 308 307 308 311 311 311 308 310 311 311 311 309 310 310 310 311 314 314 315 314 310 310 307 304 302 300 298
324 324 321 321 322 321 319 316 326 327 323 316 312 310 311 311 309 310 309 308 311 314 313 312 311 310 310 311 310 310 311 316 315 313 316 314 314 314 310 308 307 303 300 298 297
322 321 321 321 318 317 316 323 327 326 323 316 315 314 319 310 312 310 311 313 310 314 313 317 318 311 309 311 312 311 315 316 318 315 312 313 315 314 305 303 301 300 298 297 296
319 318 319 318 316 316 320 324 325 322 320 320 319 320 319 319 317 314 313 315 315 311 316 315 316 311 310 311 312 313 314 313 315 306 312 314 313 308 304 302 300 299 298 297 296
316 314 315 318 316 317 321 323 321 319 317 318 322 320 318 318 318 315 316 314 313 310 312 314 316 313 310 310 311 314 313 316 314 313 314 314 313 312 307 303 300 299 297 296 295
312 313 311 315 316 318 320 320 318 315 315 318 318 319 317 317 317 317 317 315 312 311 312 313 315 314 312 313 313 311 311 312 314 313 314 310 310 308 307 302 300 298 296 295 293
309 314 309 313 313 314 316 315 313 313 314 316 315 316 316 316 317 316 317 316 311 311 314 313 314 311 313 310 308 310 311 312 313 312 309 313 313 305 302 301 299 298 297 294 293
309 310 310 313 315 314 314 315 314 313 313 314 315 314 314 314 316 314 315 310 311 312 314 313 311 305 305 306 311 313 311 310 311 312 313 314 309 303 300 299 298 297 296 295 292
307 310 310 311 311 312 314 314 314 311 311 312 312 312 313 314 312 312 312 311 309 310 310 310 311 305 306 301 307 306 305 304 308 304 303 305 304 303 303 302 301 300 299 297 293
305 307 308 309 312 312 311 311 312 312 310 310 311 311 312 314 312 312 310 310 308 310 308 307 304 307 307 307 305 305 304 303 303 303 304 302 301 301 300 297 296 292 297 295 293
302 303 302 306 308 312 311 310 311 309 311 311 311 310 310 312 308 304 305 305 305 306 306 305 300 302 298 302 302 302 301 301 301 300 299 299 298 298 294 294 293 291 290 290 289
297 297 300 303 303 309 309 310 309 308 304 305 308 308 306 302 300 299 299 299 300 301 300 299 296 291 294 298 296 293 296 296 297 297 297 297 296 290 294 293 289 289 290 289 289
Wind_Speed
2 2 3 3 4 4 5 6 6 7 7 8 9 10 12 13 15 9 4 4 3 5 6 7 3 1 1 1 2 3 4 2 3 5 2 4 5 4 4 3 2 4 4 6 5
3 3 4 4 5 6 7 7 8 9 9 10 10 10 12 14 15 7 4 5 6 8 9 8 3 5 2 2 0 4 3 5 2 0 2 3 2 3 5 8 7 7 6 3 9
3 4 4 5 6 7 7 8 9 11 10 10 10 10 10 12 4 2 2 3 5 11 6 6 5 5 1 2 3 4 5 2 6 4 1 3 7 4 5 5 9 9 7 10 7
3 3 3 4 5 6 7 9 12 13 12 12 11 9 8 4 3 1 2 5 9 12 4 1 1 2 2 3 5 2 7 4 5 5 4 3 3 7 5 12 9 11 9 6 10
4 4 3 4 5 6 8 11 12 14 14 12 10 6 2 1 6 2 1 6 10 11 4 3 2 4 2 2 5 4 3 4 6 9 7 5 7 5 11 16 12 13 11 9 7
6 4 4 4 5 7 9 12 15 15 14 12 8 3 2 3 2 3 2 6 7 7 4 4 2 5 3 2 0 2 2 5 7 11 6 7 6 2 10 6 9 8 8 8 9
7 6 5 5 6 8 10 14 16 16 12 9 4 5 2 9 3 2 3 4 5 4 2 3 2 3 2 4 2 2 4 8 10 5 7 6 4 7 12 8 10 6 7 8 13
8 7 6 6 7 9 12 15 15 14 9 6 4 4 5 4 4 3 3 2 6 5 0 3 5 3 2 1 6 4 1 3 6 4 2 3 6 8 11 7 14 9 7 12 13
9 8 6 6 8 10 13 16 15 6 3 5 3 2 5 3 3 5 5 2 5 4 3 3 4 3 2 4 4 2 3 5 7 1 3 3 6 10 10 5 14 9 10 11 12
9 8 7 6 8 11 15 16 9 3 0 0 1 2 2 3 4 4 6 10 3 4 4 3 3 2 3 3 5 5 4 4 4 4 2 3 9 8 11 9 7 9 9 11 13
10 8 7 7 7 10 14 5 3 1 2 7 5 3 5 5 5 2 5 6 4 2 4 3 4 6 11 10 5 3 3 4 5 9 3 7 5 9 9 9 6 9 9 11 12
11 10 8 9 8 8 8 0 2 1 6 10 11 6 4 6 3 2 7 5 4 5 5 4 5 13 6 5 7 6 4 6 5 6 1 8 8 11 11 5 7 13 9 9 8
14 12 12 9 9 7 3 2 2 3 2 6 1 3 4 5 3 6 9 5 4 5 8 8 8 7 7 5 5 3 4 5 7 5 4 3 7 7 2 11 13 11 11 10 11
16 15 12 7 5 4 2 4 3 3 2 4 3 1 2 2 2 1 1 4 5 10 5 6 7 6 8 6 6 3 4 6 4 2 3 3 5 6 1 8 8 7 8 8 10
18 15 13 14 3 4 4 4 2 1 4 2 2 0 1 4 6 1 1 1 4 4 5 6 6 4 3 6 7 8 3 2 3 3 2 5 1 7 9 4 6 8 9 8 8
21 19 19 14 12 5 6 5 1 1 7 3 3 4 3 2 2 3 1 1 1 2 3 6 1 3 6 2 3 4 2 3 3 3 1 8 6 5 5 7 6 7 8 9 8
23 23 19 13 6 14 9 5 2 5 3 4 4 5 5 6 4 5 5 4 5 4 3 2 5 2 3 2 4 3 4 2 3 1 6 3 2 8 3 5 10 13 10 8 8
24 21 20 12 12 16 9 2 8 7 5 2 4 4 4 6 4 5 4 3 6 1 2 4 4 8 3 5 6 6 5 4 5 3 5 6 5 4 8 16 16 11 8 8 7
24 18 10 13 16 18 3 4 6 6 5 7 3 3 3 4 4 4 6 5 5 9 9 5 4 2 2 1 6 4 4 3 2 1 2 4 4 5 8 11 11 8 7 7 6
19 9 5 11 13 8 3 5 5 4 1 1 7 9 7 6 5 7 7 2 4 1 1 2 1 2 2 2 3 3 5 2 2 1 5 5 4 4 5 9 7 6 7 6 5
11 4 8 10 11 1 4 6 6 4 4 2 4 3 5 5 8 5 4 1 3 2 4 3 4 4 4 5 5 1 1 2 4 4 4 2 5 5 7 10 10 9 8 9 8
7 3 14 17 2 1 4 5 2 2 1 4 1 4 5 3 4 7 8 7 7 7 7 1 4 4 8 4 5 6 6 6 3 5 3 3 9 3 7 10 9 10 10 8 7
4 3 9 8 6 7 6 6 4 4 6 7 8 7 5 7 4 6 5 4 6 5 9 5 1 2 9 4 3 3 2 4 3 2 7 6 6 2 4 5 6 8 8 6 6
3 4 1 2 1 5 7 7 10 10 6 6 5 5 4 5 5 4 4 4 2 3 7 5 3 7 9 4 4 2 4 2 4 3 3 10 15 19 9 7 6 8 7 7 8
2 2 3 5 7 7 4 3 12 8 6 8 4 8 6 6 4 5 4 3 4 6 3 5 5 3 5 4 3 4 8 7 7 11 7 20 17 19 14 5 2 3 3 7 6
3 2 3 3 8 14 15 8 9 2 9 6 8 8 9 9 7 5 5 2 3 2 4 2 2 2 4 4 4 7 15 11 13 15 16 19 23 17 1 2 4 6 6 5 5
2 3 2 4 5 9 13 17 12 8 2 0 12 7 6 6 4 6 4 5 4 6 3 5 5 3 5 2 3 7 14 15 10 11 7 9 10 3 4 5 4 3 2 4 4
Wind_Direction
358 356 350 350 342 336 334 330 328 326 324 324 323 324 323 322 320 306 246 243 200 202 154 147 138 173 312 292 26 45 60 264 276 11 346 344 32 354 335 300 329 224 216 262 224
320 336 345 346 344 341 333 331 328 327 324 321 320 320 322 324 322 267 247 227 253 187 159 163 175 174 0 178 63 97 118 237 140 3 317 297 100 304 351 318 288 296 281 315 188
327 338 345 352 351 345 344 343 336 329 326 321 321 319 323 327 329 252 182 191 182 167 162 217 301 149 240 149 205 183 193 225 303 354 334 315 320 333 347 291 255 266 271 301 189
297 312 330 343 344 344 348 338 335 329 324 321 321 319 319 333 290 324 201 174 165 170 188 205 331 125 225 218 223 206 230 247 283 318 310 275 293 309 235 254 258 270 262 279 296
274 285 301 320 330 337 335 334 330 325 320 315 311 304 302 357 258 299 159 166 172 178 202 175 181 179 270 281 358 224 260 300 309 298 275 295 274 246 276 276 276 282 296 290 285
261 266 279 301 317 327 328 328 329 324 316 312 305 264 153 218 253 284 217 175 176 188 212 207 183 176 244 269 153 356 316 276 269 262 261 238 263 67 278 301 311 335 335 323 2
248 254 265 287 307 319 325 325 325 324 317 311 280 175 179 239 220 257 192 189 173 198 252 314 203 104 39 334 263 338 330 314 269 265 222 158 319 233 255 303 295 301 335 9 54
241 248 265 286 311 322 325 322 320 320 329 318 174 156 232 200 201 204 176 168 201 215 62 32 85 88 160 323 4 293 50 326 284 171 306 77 259 268 282 332 301 325 322 79 52
238 246 262 289 312 321 324 318 310 305 356 94 127 179 270 146 164 172 178 180 117 93 80 87 71 176 22 92 359 305 231 205 306 300 129 157 253 267 291 314 286 342 77 74 58
229 246 260 285 317 327 326 318 304 268 206 134 281 332 203 203 148 142 163 139 119 107 48 74 55 83 28 110 218 219 219 285 267 276 139 225 251 278 284 294 289 77 72 73 65
229 241 267 285 315 334 333 332 339 2 191 205 177 243 136 117 135 135 140 137 111 110 149 216 113 197 217 205 216 287 256 258 268 277 327 279 265 266 271 283 27 96 92 81 68
233 239 251 275 296 317 311 298 193 241 305 251 253 240 137 166 130 208 160 138 152 188 134 59 222 226 228 223 213 224 243 279 285 278 334 280 288 288 270 300 131 127 107 100 88
230 236 247 256 284 296 271 207 164 146 208 295 230 139 153 153 203 194 165 171 172 194 191 173 217 185 179 248 259 238 219 241 232 315 310 338 301 263 325 85 87 85 97 85 79
233 238 239 231 273 181 207 197 179 176 311 250 214 353 103 126 198 259 181 194 202 206 229 226 245 254 277 234 164 255 219 219 231 80 227 46 280 281 146 91 80 79 76 82 81
233 233 224 198 178 208 167 178 167 209 304 247 155 82 60 145 139 264 308 43 204 190 129 239 168 176 169 212 151 221 106 192 228 215 75 268 254 259 108 146 137 123 108 92 84
231 235 205 197 227 211 175 144 83 90 240 175 129 159 124 179 155 137 109 355 8 215 226 233 234 195 205 157 153 143 64 330 59 109 330 233 180 265 177 175 150 123 104 98 89
232 208 206 182 181 195 176 107 184 214 277 180 171 168 206 181 180 175 167 181 167 129 227 203 219 195 160 122 17 82 86 318 348 16 217 171 187 238 40 127 136 122 110 99 88
202 185 192 195 168 167 144 147 206 192 242 131 130 162 197 161 201 196 175 227 229 171 146 190 290 164 181 180 183 174 168 160 237 235 263 346 263 298 71 84 94 95 102 93 90
175 171 169 193 170 160 139 196 197 187 197 163 91 161 220 204 181 162 215 213 192 175 182 185 242 44 45 111 139 187 173 180 126 71 54 227 285 98 80 90 99 112 108 112 106
142 123 131 154 161 147 180 216 210 223 132 83 174 196 192 183 176 187 203 190 163 129 296 172 259 253 187 80 344 142 157 92 29 228 243 274 262 211 174 143 136 140 136 135 127
112 113 173 166 155 196 207 214 220 170 136 183 206 254 218 196 181 190 221 332 135 80 62 125 136 256 137 181 161 90 223 212 171 177 202 220 256 181 160 162 165 176 171 170 171
127 151 171 161 122 179 176 195 249 215 131 213 245 234 198 191 241 207 212 204 144 145 151 179 161 213 230 272 167 185 212 184 184 261 251 225 257 140 155 171 170 186 188 189 170
115 117 176 163 189 199 180 201 235 211 195 189 212 209 178 184 221 213 184 325 149 136 158 179 199 359 329 26 32 144 130 107 94 104 240 248 256 154 156 187 221 200 210 176 166
122 140 182 183 197 204 195 214 206 200 202 200 206 202 174 221 231 234 152 199 88 110 114 115 173 177 223 175 111 275 271 160 150 163 238 246 274 277 261 233 245 241 222 198 184
45 242 201 189 193 209 180 211 208 205 209 183 234 200 182 216 215 216 188 109 61 154 93 144 204 225 268 297 113 225 256 267 219 245 228 267 268 268 287 282 216 159 166 191 186
142 185 307 180 151 195 215 200 215 231 174 193 214 202 211 222 189 190 142 148 157 240 152 147 244 108 301 259 266 264 262 257 252 257 255 256 263 274 219 206 190 183 176 172 153
238 173 223 194 157 175 211 215 218 193 202 301 202 186 188 162 115 107 74 83 115 147 143 140 129 88 260 261 39 310 250 240 232 229 225 244 251 166 226 222 165 206 197 186 208